STARLINK-3261 (50193 NORAD) Tracking and Keplerian Element Data
This shows tracking and keplerian element data for the satellite.
Feedback or suggestion? Click here.
Element | Value |
Catalog | 50193 |
Name | STARLINK-3261 |
Epoch Orbit | 130 |
Epoch Day | 140.58334491 |
Epoch Year | 2022 |
RAAN | 355.0539 |
Inclination | 53.2172 |
Eccentricity | 0.000163 |
Argument of Perigee | 51.5272 |
Mean Anonmoly | 269.931 |
Mean Motion | 15.08826002 |
Decay Rate | 0.00019091 |
L1 | 1 50193U 21125AP 22140.58334491 .00019091 00000+0 12148-2 0 9992 |
L2 | 2 50193 53.2172 355.0539 0001630 51.5272 269.9310 15.08826002 1308 |
Live tracking and technical data element details for STARLINK-3261 (NORAD 50193). STARLINK-3261 can be tracked NOW for your location showing map with azimuth and elevation plus other details from your city location.
Track the satellite on the map from your city or location and see movement details for azimuth, elevation, latitude, longitude, range, height, and movement on the map or in text.
IsCatalogInMostPopularTable: catalog: 50193, numindb: 23
Update: records affected: 1
GetName: 50193 STARLINK-3261
Hit Count: updated at: Mon, 23 May 2022 21:32:24 GMT